User: anonymous
Location: Deep South Regional Star Gaze
(30.9929°N, 90.9586°W)
Time: 02:47:43
(UTC-05:00)
Language:

MSX - Orbit

View from above orbital plane
View from above orbital plane
View from above satellite
View from above satellite

Ground track
Ground track

The orbit data is extracted from the following two-line orbital elements,

1 23851U 96024A   14255.84814312 0.00000200  00000-0  14109-3 0    01
2 23851  98.7746 297.9790 0005000 266.5848  93.4150 13.97984974    02
Epoch (UTC): 12 September 2014 20:21:19
Eccentricity: 0.0005000
inclination: 98.7746°
perigee height: 897 km
apogee height: 904 km
right ascension of ascending node: 297.9790°
argument of perigee: 266.5848°
revolutions per day: 13.97984974
mean anomaly at epoch: 93.4150°
orbit number at epoch: 0

The dashed part of the orbit path shows where the satellite is in the earth's shadow,  

DLR